{"data":{"norad_id":69829,"epoch":"2026-09-20T05:14:49.524864Z","epoch_age_seconds":45995,"freshness":"FRESH","line1":"1 69829U 26154L   26263.21862876  .00007524  00000+0  23365-3 0  9990","line2":"2 69829  53.1569 333.1382 0001391  83.0681 277.0479 15.34390557 13190","mean_motion":15.34390557,"eccentricity":0.0001391,"inclination_deg":53.1569,"raan_deg":333.1382,"arg_perigee_deg":83.0681,"mean_anomaly_deg":277.0479,"bstar":0.00023365,"rev_number":1319,"period_min":93.848335642488,"perigee_km":461.77974215557,"apogee_km":463.68287171856,"semimajor_km":6840.8683069371,"source":"CELESTRAK","updated_at":"2026-09-20T09:00:44.294652Z"}}